Regional Weather Roundup
Issued by NWS

Home | Current Version | Previous Version | Text Only | Print | Product List | Glossary Off
Versions: 1 2 3 4 5 6 7 8 9 10 11 12 13 14 15 16 17 18 19 20 21 22 23 24 25 26 27 28 29 30 31 32 33 34 35 36 37 38 39 40 41 42 43 44 45 46 47 48 49 50

000
ASUS43 KFSD 171110
RWRSD

WEATHER ROUNDUP FOR SOUTH DAKOTA
NATIONAL WEATHER SERVICE SIOUX FALLS SD
600 AM CDT THU AUG 17 2017

NOTE: "FAIR" INDICATES FEW OR NO CLOUDS BELOW 12,000 FEET WITH NO
SIGNIFICANT WEATHER AND/OR OBSTRUCTIONS TO VISIBILITY.


SDZ001>005-009-010-012>017-171200-
NORTHWEST AND NORTH CENTRAL SOUTH DAKOTA

CITY           SKY/WX    TMP DP  RH WIND       PRES   REMARKS
BUFFALO          N/A     54  49  83 SE9       29.84F
FAITH            N/A     56  49  77 S10       29.92F
MOBRIDGE       CLEAR     54  52  93 NE5       29.88S FOG
$$

SDZ012>016-024>037-041>051-057-063-072>074-171200-
SOUTHWEST AND SOUTH CENTRAL SOUTH DAKOTA

CITY           SKY/WX    TMP DP  RH WIND       PRES   REMARKS
RAPID CTY ARPT CLEAR     53  49  86 SE5       29.95S
PIERRE         CLEAR     55  49  80 W5        29.90S
CUSTER         CLOUDY    55  40  56 SW3       30.09S
ELLSWORTH AFB  CLEAR     59  49  68 S6        29.93F
PHILIP         CLEAR     49  48  97 CALM      29.94S
PINE RIDGE     CLEAR     49  48  97 CALM      30.00S
SPEARFISH      FAIR      70  39  32 S15       29.94F
WINNER         FAIR      57  49  74 W5        29.94R
$$

SDZ004>011-016>023-039-040-171200-
NORTHEAST SOUTH DAKOTA

CITY           SKY/WX    TMP DP  RH WIND       PRES   REMARKS
ABERDEEN       CLEAR     57  55  93 NW10      29.85R
WATERTOWN      MOCLDY    60  59  96 NW15G23   29.79R
BROOKINGS      CLOUDY    61  59  93 NW16      29.79R
SISSETON         N/A     62  60  93 NW21G26   29.77R
$$

SDZ017-020-022-023-036>040-048>070-171200-
SOUTHEAST SOUTH DAKOTA

CITY           SKY/WX    TMP DP  RH WIND       PRES   REMARKS
SIOUX FALLS    MOCLDY    63  61  93 NW13G24   29.80R
HURON          CLEAR     56  55  97 NW10      29.85R
CHAMBERLAIN    CLEAR     58  56  95 W6        29.91R
MITCHELL       CLEAR     58  56  93 W8        29.86R
YANKTON        PTCLDY    59  57  93 W10       29.86R
$$

ABBREVIATIONS USED IN REMARKS
   TC - TEMPERATURE IN CELSIUS
  WCI - WIND CHILL INDEX
   HX - HEAT INDEX
  VSB - VISIBILITY





USA.gov is the U.S. government's official web portal to all federal, state and local government web resources and services.